sat.trackr.live / text

‹ back to catalog

STARLINK-35894

NORAD 66500 · 2025-263R

PAYLOAD ACTIVE UNKNOWN

§ Identity

Operator
Country
US
Launch date
2025-11-15
Launch site
AFETR
Launch vehicle
Mass (kg)
RCS (m²)

Purposes: comms

External: N2YO · Heavens-Above · Gunter

§ Orbital elements

Epoch: 2026-09-20T12:05:59.343648Z

Period
94.27 min
Inclination
42.9981°
Eccentricity
0.0000890
Mean motion
15.27587340 rev/d
Perigee alt
482.4 km
Apogee alt
483.6 km
Semi-major
6,861.2 km
B*
5.3054e-4
RAAN
333.9175°
Arg perigee
276.7974°
Mean anomaly
83.2777°
Rev number
4,865

§ Raw data

STARLINK-358941 66500U 25263R   26263.50415907  .00014369  00000+0  53054-3 0  99972 66500  42.9981 333.9175 0000890 276.7974  83.2777 15.27587340 48651

JSON: /api/v1/satellites/66500 · /tle

For live sub-satellite position, see the globe view (requires WebGL).

§ Visibility from observer

Set your observer location to see the next 7 days of passes ≥ 10°. The values pass through the URL so the page stays shareable.

No JS? Fill the form by hand. The geolocation button needs JavaScript.